Location: Lesignano de� Bagni
(44.6500°N, 10.3000°E)
Time: 09:11:50
(UTC+00:00)

Okean-O - Pass Details

Date: 03 March 2021
Orbit: 639 x 640 km, 98.2° (Epoch: 18 April)

Event Time Altitude Azimuth Distance (km) Brightness Sun altitude
Rises 18:20:45 0° 176° (S) 2,931 5.9 -13.5°
Reaches altitude 10° 18:22:59 10° 180° (S) 2,027 5.2 -13.9°
Maximum altitude 18:27:19 56° 259° (W) 766 3.4 -14.6°
Drops below altitude 10° 18:31:42 10° 338° (NNW) 2,043 5.6 -15.4°
Sets 18:33:58 0° 343° (NNW) 2,957 6.4 -15.8°
